Greenville, AL

2:58 PM CST on February 13, 2016 (GMT -0600)
Greenville Municipal

Weather History for KPRN - July, 2013

Change the Weather History Date:

Wednesday, July 3, 2013

  Actual Average (KTOI) Record (KTOI)
Temperature  
Mean Temperature 74 °F 80 °F  
Max Temperature 79 °F 91 °F - ()
Min Temperature 69 °F 69 °F - ()
Cooling Degree Days 9 15  
Month to date cooling degree days 45  
Year to date cooling degree days 720  
Since 1 June cooling degree days 433  
Growing Degree Days 24 (Base 50)    
Moisture  
Dew Point 70 °F    
Average Humidity 87    
Maximum Humidity 94    
Minimum Humidity 74    
Precipitation  
Precipitation 0.01 in 0.19 in - ()
Month to date precipitation 0.59  
Year to date precipitation 28.25  
Sea Level Pressure  
Sea Level Pressure 30.04 in    
Wind  
Wind Speed 3 mph (ESE)    
Max Wind Speed 13 mph    
Max Gust Speed 17 mph    
Visibility 9 miles    
Events Rain    
T = Trace of Precipitation, MM = Missing Value Source: NWS Daily Summary

Daily Weather History Graph

Daily Weather History Graph

Search for Another Location

Airport or City:

Trip Planner

Search our weather history database for the weather conditions in past years. The results will help you decide how hot, cold, wet, or windy it might be!

Date:

Astronomy

Jul. 03, 2013 Rise Set
Actual Time 5:45 AM CDT 7:56 PM CDT
Civil Twilight 5:17 AM CDT 8:24 PM CDT
Nautical Twilight 4:43 AM CDT 8:58 PM CDT
Astronomical Twilight 4:06 AM CDT 9:35 PM CDT
Moon 2:15 AM CDT (7/3) 4:11 PM CDT (7/3)
Length of Visible Light 15h 06m
Length of Day
14h 10m
Waning Crescent, 18% of the Moon is Illuminated
Jul 3
Waning Crescent
Jul 8
New
Jul 15
First Quarter
Jul 22
Full
Jul 29
Last Quarter

Hourly Weather History & Observations

Time (CDT) Temp. Dew Point Humidity Pressure Visibility Wind Dir Wind Speed Gust Speed Precip Events Conditions
12:56 AM 72.0 °F 69.1 °F 91% 30.02 in 10.0 mi Calm Calm - N/A   Partly Cloudy
1:56 AM 70.0 °F 68.0 °F 93% 30.00 in 7.0 mi Calm Calm - N/A   Clear
2:56 AM 71.1 °F 68.0 °F 90% 29.99 in 8.0 mi Calm Calm - N/A   Clear
3:56 AM 70.0 °F 66.9 °F 90% 29.99 in 7.0 mi Calm Calm - N/A   Clear
4:56 AM 70.0 °F 68.0 °F 93% 30.01 in 7.0 mi Calm Calm - N/A   Scattered Clouds
5:11 AM 69.8 °F 68.0 °F 94% 30.03 in 6.0 mi Calm Calm - N/A   Mostly Cloudy
5:56 AM 71.1 °F 68.0 °F 90% 30.02 in 7.0 mi Calm Calm - N/A   Overcast
6:30 AM 69.8 °F 68.0 °F 94% 30.04 in 5.0 mi Calm Calm - N/A   Scattered Clouds
6:53 AM 71.6 °F 68.0 °F 88% 30.04 in 5.0 mi Calm Calm - N/A   Scattered Clouds
6:56 AM 71.1 °F 69.1 °F 93% 30.03 in 5.0 mi Calm Calm - N/A   Mostly Cloudy
7:41 AM 73.4 °F 69.8 °F 88% 30.06 in 6.0 mi Calm Calm - N/A   Overcast
7:56 AM 73.9 °F 70.0 °F 87% 30.05 in 8.0 mi Calm Calm - N/A   Overcast
8:38 AM 73.4 °F 71.6 °F 94% 30.07 in 6.0 mi Calm Calm - 0.00 in Rain Light Rain
8:56 AM 75.0 °F 72.0 °F 90% 30.04 in 8.0 mi North 3.5 mph - 0.01 in Rain Light Rain
9:24 AM 75.2 °F 73.4 °F 94% 30.06 in 9.0 mi East 4.6 mph - 0.00 in   Overcast
9:56 AM 75.9 °F 73.0 °F 91% 30.06 in 10.0 mi ESE 8.1 mph - 0.00 in   Overcast
10:15 AM 75.2 °F 73.4 °F 94% 30.07 in 10.0 mi ESE 12.7 mph - N/A   Overcast
10:43 AM 77.0 °F 73.4 °F 89% 30.08 in 10.0 mi SE 8.1 mph - N/A   Mostly Cloudy
10:54 AM 77.0 °F 73.4 °F 89% 30.08 in 10.0 mi SE 9.2 mph - N/A   Mostly Cloudy
10:56 AM 78.1 °F 73.0 °F 84% 30.06 in 10.0 mi ESE 10.4 mph - N/A   Mostly Cloudy
11:30 AM 78.8 °F 71.6 °F 78% 30.08 in 10.0 mi ESE 9.2 mph - N/A   Scattered Clouds
11:56 AM 77.0 °F 72.0 °F 84% 30.07 in 10.0 mi ESE 8.1 mph - N/A   Scattered Clouds
12:56 PM 77.0 °F 72.0 °F 84% 30.05 in 10.0 mi SE 11.5 mph - 0.00 in Rain Light Rain
1:18 PM 77.0 °F 71.6 °F 83% 30.05 in 10.0 mi SE 8.1 mph - N/A   Overcast
1:56 PM 79.0 °F 71.1 °F 77% 30.03 in 10.0 mi ESE 8.1 mph - N/A   Mostly Cloudy
2:33 PM 78.8 °F 69.8 °F 74% 30.04 in 10.0 mi SE 9.2 mph 17.3 mph N/A   Mostly Cloudy
2:56 PM 78.1 °F 71.1 °F 79% 30.03 in 10.0 mi SE 9.2 mph - 0.00 in   Overcast
3:09 PM 78.8 °F 69.8 °F 74% 30.04 in 10.0 mi SE 9.2 mph - N/A   Mostly Cloudy
3:56 PM 77.0 °F 69.1 °F 76% 30.02 in 10.0 mi SE 11.5 mph 16.1 mph N/A   Overcast
4:05 PM 75.2 °F 69.8 °F 83% 30.03 in 10.0 mi SE 6.9 mph 17.3 mph N/A   Mostly Cloudy
4:56 PM 75.0 °F 69.1 °F 82% 29.99 in 10.0 mi ESE 9.2 mph 17.3 mph N/A   Partly Cloudy
5:15 PM 75.2 °F 69.8 °F 83% 30.01 in 10.0 mi ESE 8.1 mph - N/A   Mostly Cloudy
5:37 PM 75.2 °F 69.8 °F 83% 30.01 in 10.0 mi SE 5.8 mph - N/A   Scattered Clouds
5:56 PM 75.9 °F 70.0 °F 82% 29.99 in 10.0 mi ESE 8.1 mph - N/A   Partly Cloudy
6:56 PM 75.0 °F 69.1 °F 82% 30.01 in 10.0 mi ESE 6.9 mph - N/A   Mostly Cloudy
7:09 PM 75.2 °F 69.8 °F 83% 30.03 in 10.0 mi Variable 4.6 mph - N/A   Mostly Cloudy
7:41 PM 73.4 °F 69.8 °F 88% 30.04 in 10.0 mi ESE 4.6 mph - N/A   Scattered Clouds
7:56 PM 73.0 °F 68.0 °F 84% 30.03 in 10.0 mi ESE 5.8 mph - N/A   Partly Cloudy
8:45 PM 71.6 °F 69.8 °F 94% 30.05 in 10.0 mi East 3.5 mph - N/A   Mostly Cloudy
8:56 PM 72.0 °F 69.1 °F 91% 30.04 in 10.0 mi East 4.6 mph - N/A   Overcast
9:47 PM - - N/A% - 0.7 mi East 3.5 mph - N/A   Sand
9:56 PM 73.0 °F 69.1 °F 87% 30.05 in 10.0 mi ENE 4.6 mph - N/A   Overcast
10:56 PM 73.0 °F 69.1 °F 87% 30.05 in 10.0 mi East 5.8 mph - N/A   Overcast
11:56 PM 73.0 °F 70.0 °F 90% 30.03 in 10.0 mi ESE 4.6 mph - N/A   Overcast